CW5834 Weather Reports


Display with metric or nautical units.
time (UTC)temp
F
wind
direction
speed
MPH
gust
MPH
rain 1hr
in
rain 24hr
in
rain mn
in
humidity
%
barometer
mb
20260502225516 57 338 4.0 8.0 0.00 0.00 0.00 46 1015.6
20260502224516 57 23 2.0 4.0 0.00 0.00 0.00 46 1015.5
20260502223516 57 315 2.0 8.0 0.00 0.00 0.00 47 1015.7
20260502222516 58 293 5.0 12.0 0.00 0.00 0.00 43 1015.4
20260502221536 58 293 3.0 10.0 0.00 0.00 0.00 42 1015.2
20260502220536 59 315 3.0 9.0 0.00 0.00 0.00 41 1014.9
20260502215516 60 315 5.0 11.0 0.00 0.00 0.00 40 1015.1
20260502214524 60 0 2.0 4.0 0.00 0.00 0.00 41 1014.8
20260502213516 59 338 4.0 8.0 0.00 0.00 0.00 43 1015.1
20260502212516 59 315 3.0 8.0 0.00 0.00 0.00 42 1014.8
20260502211516 59 23 3.0 10.0 0.00 0.00 0.00 41 1014.8
20260502210516 61 315 3.0 9.0 0.00 0.00 0.00 41 1014.6
20260502205516 60 338 5.0 10.0 0.00 0.00 0.00 39 1014.7
20260502204536 60 45 2.0 7.0 0.00 0.00 0.00 41 1014.6
20260502203516 60 338 3.0 6.0 0.00 0.00 0.00 43 1014.7
20260502202516 59 315 4.0 10.0 0.00 0.00 0.00 40 1014.8
20260502201516 61 45 4.0 12.0 0.00 0.00 0.00 41 1015.0
20260502200516 60 315 2.0 4.0 0.00 0.00 0.00 39 1014.8
20260502195517 60 68 3.0 9.0 0.00 0.00 0.00 38 1014.9
20260502194516 60 45 4.0 12.0 0.00 0.00 0.00 39 1014.9
20260502193516 60 23 4.0 16.0 0.00 0.00 0.00 37 1015.1
20260502192516 60 315 5.0 10.0 0.00 0.00 0.00 42 1015.0
20260502191515 60 338 4.0 12.0 0.00 0.00 0.00 38 1014.8
20260502190555 60 180 2.0 8.0 0.00 0.00 0.00 40 1015.1
20260502185515 61 293 5.0 12.0 0.00 0.00 0.00 36 1015.1
20260502184516 60 338 2.0 5.0 0.00 0.00 0.00 38 1015.2
20260502183516 61 45 3.0 10.0 0.00 0.00 0.00 36 1015.4
20260502182516 61 338 3.0 8.0 0.00 0.00 0.00 41 1015.4
20260502181535 62 23 2.0 9.0 0.00 0.00 0.00 40 1015.5
20260502180535 60 315 3.0 8.0 0.00 0.00 0.00 38 1015.6
20260502170517 60 0 3.0 11.0 0.00 0.00 0.00 42 1016.1
20260502163517 60 113 3.0 10.0 0.00 0.00 0.00 39 1016.3
20260502162517 59 23 3.0 9.0 0.00 0.00 0.00 41 1016.5
20260502161518 58 293 3.0 7.0 0.00 0.00 0.00 42 1016.3
20260502160537 59 315 5.0 12.0 0.00 0.00 0.00 44 1016.5
20260502151521 57 135 2.0 5.0 0.00 0.00 0.00 45 1016.7
20260502150517 57 293 3.0 8.0 0.00 0.00 0.00 48 1016.8
20260502130517 53 158 1.0 4.0 0.00 0.00 0.00 60 1016.5
20260502123517 51 90 1.0 3.0 0.00 0.00 0.00 63 1016.4
20260502122516 50 23 1.0 4.0 0.00 0.00 0.00 63 1016.4
20260502121517 49 0 2.0 5.0 0.00 0.00 0.00 67 1016.3
20260502120516 48 23 1.0 3.0 0.00 0.00 0.00 69 1016.3
20260502115517 47 0 1.0 3.0 0.00 0.00 0.00 69 1016.0
20260502114517 47 0.0 2.0 0.00 0.00 0.00 72 1016.0
20260502113517 47 0.0 0.0 0.00 0.00 0.00 73 1015.9
20260502112536 47 0.0 1.0 0.00 0.00 0.00 74 1015.8
20260502111517 47 0.0 2.0 0.00 0.00 0.00 71 1015.7
20260502110523 47 0.0 1.0 0.00 0.00 0.00 71 1015.6
20260502105536 47 338 1.0 2.0 0.00 0.00 0.00 69 1015.6
20260502104516 47 0 1.0 2.0 0.00 0.00 0.00 69 1015.6
20260502103516 48 338 2.0 4.0 0.00 0.00 0.00 68 1015.6
20260502102537 48 338 1.0 2.0 0.00 0.00 0.00 68 1015.9
20260502100516 48 0 2.0 3.0 0.00 0.00 0.00 66 1015.5
20260502090516 48 0 1.0 2.0 0.00 0.00 0.00 66 1015.5
20260502071516 49 338 1.0 2.0 0.00 0.00 0.00 68 1016.2
20260502070556 50 0.0 2.0 0.00 0.00 0.00 68 1016.2
20260502065516 50 23 1.0 2.0 0.00 0.00 0.00 66 1016.1
20260502064516 50 338 1.0 2.0 0.00 0.00 0.00 66 1016.1
20260502063516 50 0 1.0 2.0 0.00 0.00 0.00 65 1016.3
20260502062516 50 338 1.0 2.0 0.00 0.00 0.00 65 1016.2
20260502061516 50 0 2.0 4.0 0.00 0.00 0.00 64 1016.1
20260502060516 51 338 1.0 3.0 0.00 0.00 0.00 64 1016.0
20260502055516 51 0 2.0 4.0 0.00 0.00 0.00 62 1016.0
20260502054516 51 0 2.0 4.0 0.00 0.00 0.00 62 1016.2
20260502053517 51 23 1.0 4.0 0.00 0.00 0.00 62 1016.3
20260502052536 52 45 2.0 5.0 0.00 0.00 0.00 61 1016.3
20260502051556 52 0 3.0 6.0 0.00 0.00 0.00 60 1016.2
20260502050516 52 0 1.0 2.0 0.00 0.00 0.00 61 1016.2
20260502045516 53 0 1.0 5.0 0.00 0.00 0.00 59 1016.1
20260502044516 53 0 2.0 5.0 0.00 0.00 0.00 59 1016.1
20260502043515 53 0 2.0 5.0 0.00 0.00 0.00 59 1016.1
20260502042536 53 0 1.0 3.0 0.00 0.00 0.00 59 1015.8
20260502041516 54 0 3.0 9.0 0.00 0.00 0.00 58 1015.8
20260502040516 54 23 2.0 5.0 0.00 0.00 0.00 59 1015.7
20260502035517 54 293 1.0 3.0 0.00 0.00 0.00 60 1015.6
20260502034517 54 113 1.0 3.0 0.00 0.00 0.00 59 1015.6
20260502033517 55 0 3.0 10.0 0.00 0.00 0.00 58 1015.8
20260502032517 55 338 1.0 5.0 0.00 0.00 0.00 59 1015.7
20260502031517 55 0 2.0 9.0 0.00 0.00 0.00 60 1015.8
20260502030516 55 23 2.0 9.0 0.00 0.00 0.00 60 1015.8
20260502025516 55 338 1.0 2.0 0.00 0.00 0.00 61 1015.7
20260502024516 56 23 1.0 2.0 0.00 0.00 0.00 61 1015.8
20260502023516 56 68 1.0 3.0 0.00 0.00 0.00 61 1015.8
20260502022516 56 0.0 2.0 0.00 0.00 0.00 61 1015.7
20260502021516 56 338 1.0 4.0 0.00 0.00 0.00 61 1015.7
20260502020516 57 0.0 2.0 0.00 0.00 0.00 62 1015.5
20260502015516 57 23 3.0 8.0 0.00 0.00 0.00 61 1015.3
20260502014516 57 0 1.0 2.0 0.00 0.00 0.00 63 1015.1
20260502013516 58 0 2.0 8.0 0.00 0.00 0.00 63 1015.0
20260502012516 58 23 2.0 4.0 0.00 0.00 0.00 64 1014.7
20260502011516 58 0.0 4.0 0.00 0.00 0.00 63 1014.6
20260502010556 59 0 4.0 10.0 0.00 0.00 0.00 61 1014.4
20260502005516 60 68 1.0 5.0 0.00 0.00 0.00 60 1013.6
20260502004516 60 338 2.0 5.0 0.00 0.00 0.00 55 1013.4
20260502003516 61 315 3.0 8.0 0.00 0.00 0.00 54 1013.4
20260502002522 61 23 2.0 5.0 0.00 0.00 0.00 51 1013.2
20260502001516 62 0 2.0 6.0 0.00 0.00 0.00 51 1013.2
20260502000517 62 0 4.0 9.0 0.00 0.00 0.00 49 1013.0
20260501235516 62 315 1.0 5.0 0.00 0.00 0.00 49 1013.0
20260501234536 63 338 2.0 4.0 0.00 0.00 0.00 48 1012.7
20260501233516 63 315 2.0 5.0 0.00 0.00 0.00 47 1012.4
20260501232516 64 293 2.0 5.0 0.00 0.00 0.00 45 1012.4
20260501231516 64 315 1.0 3.0 0.00 0.00 0.00 45 1012.2
20260501230516 64 315 1.0 3.0 0.00 0.00 0.00 46 1012.3